| time (UTC) | temp F | wind direction | speed MPH | gust MPH | rain 1hr in | rain 24hr in | rain mn in | humidity % | barometer mb |
| 20260509185044 | 77 | 227 | 3.0 | 9.0 | 0.00 | 0.00 | 0.00 | 77 | 1014.7 |
| 20260509184543 | 77 | 240 | 4.0 | 8.0 | 0.00 | 0.00 | 0.00 | 77 | 1014.8 |
| 20260509184039 | 76 | 231 | 6.0 | 8.0 | 0.00 | 0.00 | 0.00 | 77 | 1014.6 |
| 20260509183534 | 77 | 235 | 7.0 | 11.0 | 0.00 | 0.00 | 0.00 | 76 | 1014.7 |
| 20260509183031 | 77 | 239 | 4.0 | 6.0 | 0.00 | 0.00 | 0.00 | 74 | 1014.8 |
| 20260509182527 | 77 | 216 | 6.0 | 8.0 | 0.00 | 0.00 | 0.00 | 74 | 1014.6 |
| 20260509182024 | 77 | 214 | 8.0 | 11.0 | 0.00 | 0.00 | 0.00 | 74 | 1014.6 |
| 20260509181522 | 77 | 249 | 2.0 | 8.0 | 0.00 | 0.00 | 0.00 | 77 | 1014.8 |
| 20260509181019 | 77 | 228 | 7.0 | 11.0 | 0.00 | 0.00 | 0.00 | 77 | 1014.7 |
| 20260509180514 | 77 | 215 | 9.0 | 11.0 | 0.00 | 0.00 | 0.00 | 77 | 1014.9 |
| 20260509180013 | 76 | 234 | 5.0 | 6.0 | 0.00 | 0.00 | 0.00 | 78 | 1014.8 |
| 20260509175508 | 76 | 257 | 4.0 | 9.0 | 0.00 | 0.00 | 0.00 | 80 | 1015.0 |
| 20260509175005 | 76 | 220 | 7.0 | 9.0 | 0.00 | 0.00 | 0.00 | 79 | 1015.0 |
| 20260509174502 | 76 | 242 | 4.0 | 9.0 | 0.00 | 0.00 | 0.00 | 78 | 1014.9 |
| 20260509174002 | 76 | 220 | 8.0 | 9.0 | 0.00 | 0.00 | 0.00 | 78 | 1015.1 |
| 20260509173457 | 76 | 224 | 8.0 | 10.0 | 0.00 | 0.00 | 0.00 | 76 | 1014.9 |
| 20260509172953 | 76 | 229 | 8.0 | 9.0 | 0.00 | 0.00 | 0.00 | 78 | 1015.2 |
| 20260509172450 | 76 | 217 | 6.0 | 9.0 | 0.00 | 0.00 | 0.00 | 79 | 1015.3 |
| 20260509171946 | 76 | 213 | 8.0 | 11.0 | 0.00 | 0.00 | 0.00 | 80 | 1015.5 |
| 20260509171442 | 76 | 275 | 3.0 | 11.0 | 0.00 | 0.00 | 0.00 | 80 | 1015.3 |
| 20260509170939 | 76 | 217 | 4.0 | 5.0 | 0.00 | 0.00 | 0.00 | 80 | 1015.5 |
| 20260509170434 | 75 | 204 | 6.0 | 9.0 | 0.00 | 0.00 | 0.00 | 80 | 1015.5 |
| 20260509165930 | 75 | 237 | 6.0 | 10.0 | 0.00 | 0.00 | 0.00 | 81 | 1015.5 |
| 20260509165424 | 75 | 245 | 3.0 | 6.0 | 0.00 | 0.00 | 0.00 | 84 | 1015.7 |
| 20260509164920 | 74 | 221 | 5.0 | 7.0 | 0.00 | 0.00 | 0.00 | 84 | 1015.8 |
| 20260509164416 | 74 | 238 | 6.0 | 13.0 | 0.00 | 0.00 | 0.00 | 84 | 1016.0 |
| 20260509163912 | 74 | 221 | 5.0 | 8.0 | 0.00 | 0.00 | 0.00 | 84 | 1016.0 |
| 20260509163410 | 74 | 277 | 1.0 | 6.0 | 0.00 | 0.00 | 0.00 | 84 | 1016.1 |
| 20260509162909 | 75 | 219 | 6.0 | 6.0 | 0.00 | 0.00 | 0.00 | 84 | 1015.8 |
| 20260509162407 | 75 | 258 | 3.0 | 8.0 | 0.00 | 0.00 | 0.00 | 83 | 1015.8 |
| 20260509161903 | 75 | 240 | 3.0 | 5.0 | 0.00 | 0.00 | 0.00 | 84 | 1015.7 |
| 20260509161400 | 75 | 220 | 4.0 | 4.0 | 0.00 | 0.00 | 0.00 | 84 | 1015.6 |
| 20260509160855 | 75 | 244 | 3.0 | 7.0 | 0.00 | 0.00 | 0.00 | 83 | 1015.8 |
| 20260509160351 | 75 | 292 | 2.0 | 9.0 | 0.00 | 0.00 | 0.00 | 82 | 1015.8 |
| 20260509155846 | 75 | 242 | 6.0 | 9.0 | 0.00 | 0.00 | 0.00 | 82 | 1015.6 |
| 20260509155343 | 75 | 230 | 3.0 | 7.0 | 0.00 | 0.00 | 0.00 | 83 | 1015.6 |
| 20260509154839 | 75 | 228 | 4.0 | 8.0 | 0.00 | 0.00 | 0.00 | 84 | 1015.6 |
| 20260509154336 | 75 | 207 | 4.0 | 5.0 | 0.00 | 0.00 | 0.00 | 84 | 1015.6 |
| 20260509153833 | 75 | 278 | 3.0 | 8.0 | 0.00 | 0.00 | 0.00 | 85 | 1015.7 |
| 20260509153330 | 75 | 255 | 4.0 | 8.0 | 0.00 | 0.00 | 0.00 | 86 | 1016.0 |
| 20260509152827 | 74 | 221 | 5.0 | 6.0 | 0.00 | 0.00 | 0.00 | 85 | 1016.1 |
| 20260509152322 | 74 | 237 | 4.0 | 6.0 | 0.00 | 0.00 | 0.00 | 87 | 1016.2 |
| 20260509151821 | 74 | 205 | 6.0 | 9.0 | 0.00 | 0.00 | 0.00 | 86 | 1016.3 |
| 20260509151316 | 74 | 228 | 4.0 | 7.0 | 0.00 | 0.00 | 0.00 | 86 | 1016.2 |
| 20260509150815 | 74 | 251 | 3.0 | 4.0 | 0.00 | 0.00 | 0.00 | 86 | 1016.4 |
| 20260509150312 | 74 | 252 | 1.0 | 4.0 | 0.00 | 0.00 | 0.00 | 87 | 1016.5 |
| 20260509145809 | 74 | 271 | 1.0 | 3.0 | 0.00 | 0.00 | 0.00 | 86 | 1016.3 |
| 20260509145309 | 74 | 282 | 2.0 | 3.0 | 0.00 | 0.00 | 0.00 | 87 | 1016.4 |
| 20260509144806 | 74 | 263 | 2.0 | 2.0 | 0.00 | 0.00 | 0.00 | 86 | 1016.5 |
| 20260509144303 | 74 | 268 | 1.0 | 3.0 | 0.00 | 0.00 | 0.00 | 86 | 1016.5 |
| 20260509143800 | 74 | 278 | 1.0 | 2.0 | 0.00 | 0.00 | 0.00 | 86 | 1016.3 |
| 20260509143257 | 73 | 278 | 1.0 | 2.0 | 0.00 | 0.00 | 0.00 | 86 | 1016.4 |
| 20260509142753 | 73 | 356 | 1.0 | 2.0 | 0.00 | 0.00 | 0.00 | 86 | 1016.1 |
| 20260509142249 | 73 | 268 | 1.0 | 2.0 | 0.00 | 0.00 | 0.00 | 86 | 1016.0 |
| 20260509141745 | 73 | 298 | 0.0 | 2.0 | 0.00 | 0.00 | 0.00 | 86 | 1015.9 |
| 20260509141242 | 73 | 217 | 2.0 | 3.0 | 0.00 | 0.00 | 0.00 | 85 | 1016.1 |
| 20260509140739 | 73 | 249 | 2.0 | 3.0 | 0.00 | 0.00 | 0.00 | 86 | 1016.0 |
| 20260509140236 | 73 | 312 | 2.0 | 2.0 | 0.00 | 0.00 | 0.00 | 86 | 1016.0 |
| 20260509135733 | 73 | 203 | 2.0 | 2.0 | 0.00 | 0.00 | 0.00 | 85 | 1015.9 |
| 20260509135232 | 73 | 216 | 2.0 | 3.0 | 0.00 | 0.00 | 0.00 | 85 | 1015.8 |
| 20260509134728 | 73 | 213 | 1.0 | 2.0 | 0.00 | 0.00 | 0.00 | 85 | 1015.7 |
| 20260509134226 | 73 | 282 | 2.0 | 2.0 | 0.00 | 0.00 | 0.00 | 84 | 1016.0 |
| 20260509133723 | 73 | 291 | 0.0 | 2.0 | 0.00 | 0.00 | 0.00 | 84 | 1015.9 |
| 20260509133219 | 73 | 300 | 2.0 | 2.0 | 0.00 | 0.00 | 0.00 | 84 | 1015.9 |
| 20260509132718 | 73 | 349 | 1.0 | 2.0 | 0.00 | 0.00 | 0.00 | 84 | 1016.1 |
| 20260509132216 | 73 | 309 | 1.0 | 2.0 | 0.00 | 0.00 | 0.00 | 84 | 1016.2 |
| 20260509131712 | 73 | 350 | 2.0 | 2.0 | 0.00 | 0.00 | 0.00 | 84 | 1016.2 |
| 20260509131209 | 72 | 327 | 2.0 | 3.0 | 0.00 | 0.00 | 0.00 | 84 | 1016.1 |
| 20260509130705 | 72 | 244 | 0.0 | 2.0 | 0.00 | 0.00 | 0.00 | 84 | 1016.4 |
| 20260509130201 | 72 | 336 | 2.0 | 2.0 | 0.00 | 0.00 | 0.00 | 84 | 1016.3 |
| 20260509125658 | 72 | 340 | 2.0 | 2.0 | 0.00 | 0.00 | 0.00 | 85 | 1016.2 |
| 20260509125154 | 72 | 343 | 1.0 | 2.0 | 0.00 | 0.00 | 0.00 | 85 | 1016.3 |
| 20260509124651 | 71 | 19 | 2.0 | 2.0 | 0.00 | 0.00 | 0.00 | 85 | 1016.1 |
| 20260509124148 | 71 | 344 | 1.0 | 2.0 | 0.00 | 0.00 | 0.00 | 85 | 1016.2 |
| 20260509123646 | 71 | 339 | 2.0 | 2.0 | 0.00 | 0.00 | 0.00 | 86 | 1016.3 |
| 20260509123143 | 71 | 335 | 2.0 | 3.0 | 0.00 | 0.00 | 0.00 | 87 | 1016.4 |
| 20260509122638 | 70 | 342 | 2.0 | 3.0 | 0.00 | 0.00 | 0.00 | 88 | 1016.2 |
| 20260509122136 | 70 | 344 | 4.0 | 4.0 | 0.00 | 0.00 | 0.00 | 88 | 1016.4 |
| 20260509121632 | 69 | 6 | 2.0 | 4.0 | 0.00 | 0.00 | 0.00 | 89 | 1016.3 |
| 20260509121130 | 69 | 341 | 3.0 | 4.0 | 0.00 | 0.00 | 0.00 | 90 | 1016.3 |
| 20260509120628 | 69 | 44 | 4.0 | 4.0 | 0.00 | 0.00 | 0.00 | 93 | 1016.1 |
| 20260509120126 | 68 | 339 | 2.0 | 4.0 | 0.00 | 0.00 | 0.00 | 93 | 1016.2 |
| 20260509115623 | 67 | 31 | 2.0 | 3.0 | 0.00 | 0.00 | 0.00 | 94 | 1016.1 |
| 20260509115121 | 67 | 7 | 2.0 | 3.0 | 0.00 | 0.00 | 0.00 | 94 | 1016.0 |
| 20260509114618 | 66 | 350 | 2.0 | 2.0 | 0.00 | 0.00 | 0.00 | 94 | 1015.8 |
| 20260509114117 | 66 | 352 | 2.0 | 3.0 | 0.00 | 0.00 | 0.00 | 95 | 1015.9 |
| 20260509113615 | 66 | 340 | 2.0 | 2.0 | 0.00 | 0.00 | 0.00 | 95 | 1015.8 |
| 20260509113112 | 66 | 343 | 2.0 | 2.0 | 0.00 | 0.00 | 0.00 | 95 | 1015.9 |
| 20260509112608 | 66 | 0 | 0.0 | 2.0 | 0.00 | 0.00 | 0.00 | 95 | 1015.8 |
| 20260509112106 | 66 | 348 | 2.0 | 2.0 | 0.00 | 0.00 | 0.00 | 95 | 1015.9 |
| 20260509111603 | 65 | 1 | 1.0 | 2.0 | 0.00 | 0.00 | 0.00 | 95 | 1015.8 |
| 20260509111100 | 65 | 8 | 2.0 | 3.0 | 0.00 | 0.00 | 0.00 | 95 | 1015.8 |
| 20260509110557 | 65 | 358 | 2.0 | 3.0 | 0.00 | 0.00 | 0.00 | 95 | 1015.8 |
| 20260509110054 | 65 | 1 | 2.0 | 3.0 | 0.00 | 0.00 | 0.00 | 95 | 1015.6 |
| 20260509105552 | 65 | 15 | 2.0 | 2.0 | 0.00 | 0.00 | 0.00 | 95 | 1015.7 |
| 20260509105049 | 65 | 341 | 2.0 | 3.0 | 0.00 | 0.00 | 0.00 | 95 | 1015.7 |
| 20260509104546 | 65 | 343 | 2.0 | 3.0 | 0.00 | 0.00 | 0.00 | 95 | 1015.5 |
| 20260509104043 | 65 | 4 | 2.0 | 2.0 | 0.00 | 0.00 | 0.00 | 95 | 1015.4 |
| 20260509103541 | 65 | 3 | 2.0 | 3.0 | 0.00 | 0.00 | 0.00 | 94 | 1015.3 |
| 20260509103039 | 65 | 348 | 2.0 | 2.0 | 0.00 | 0.00 | 0.00 | 94 | 1015.3 |
| 20260509102536 | 65 | 9 | 2.0 | 3.0 | 0.00 | 0.00 | 0.00 | 94 | 1015.4 |
| 20260509102033 | 65 | 17 | 2.0 | 2.0 | 0.00 | 0.00 | 0.00 | 94 | 1015.4 |
| 20260509101529 | 65 | 336 | 2.0 | 2.0 | 0.00 | 0.00 | 0.00 | 94 | 1015.2 |
| 20260509101026 | 65 | 349 | 2.0 | 2.0 | 0.00 | 0.00 | 0.00 | 94 | 1015.1 |
| 20260509100523 | 65 | 350 | 2.0 | 2.0 | 0.00 | 0.00 | 0.00 | 94 | 1015.0 |
| 20260509100020 | 65 | 3 | 2.0 | 2.0 | 0.00 | 0.00 | 0.00 | 94 | 1015.3 |
| 20260509095517 | 65 | 325 | 2.0 | 2.0 | 0.00 | 0.00 | 0.00 | 94 | 1015.2 |
| 20260509095014 | 65 | 350 | 2.0 | 3.0 | 0.00 | 0.00 | 0.00 | 94 | 1015.2 |
| 20260509094510 | 65 | 358 | 3.0 | 3.0 | 0.00 | 0.00 | 0.00 | 94 | 1015.1 |
| 20260509094008 | 65 | 8 | 2.0 | 2.0 | 0.00 | 0.00 | 0.00 | 93 | 1015.3 |
| 20260509093506 | 65 | 358 | 2.0 | 2.0 | 0.00 | 0.00 | 0.00 | 93 | 1015.2 |
| 20260509093003 | 65 | 3 | 1.0 | 2.0 | 0.00 | 0.00 | 0.00 | 93 | 1015.4 |
| 20260509092500 | 66 | 345 | 1.0 | 3.0 | 0.00 | 0.00 | 0.00 | 93 | 1015.3 |
| 20260509091959 | 66 | 353 | 2.0 | 2.0 | 0.00 | 0.00 | 0.00 | 93 | 1015.5 |
| 20260509091456 | 66 | 1 | 2.0 | 2.0 | 0.00 | 0.00 | 0.00 | 93 | 1015.5 |
| 20260509090953 | 66 | 335 | 2.0 | 3.0 | 0.00 | 0.00 | 0.00 | 93 | 1015.5 |
| 20260509090450 | 66 | 343 | 2.0 | 2.0 | 0.00 | 0.00 | 0.00 | 92 | 1015.4 |
| 20260509085948 | 66 | 321 | 1.0 | 2.0 | 0.00 | 0.00 | 0.00 | 92 | 1015.5 |
| 20260509085444 | 66 | 338 | 2.0 | 2.0 | 0.00 | 0.00 | 0.00 | 92 | 1015.5 |
| 20260509084941 | 66 | 341 | 2.0 | 2.0 | 0.00 | 0.00 | 0.00 | 92 | 1015.4 |
| 20260509084438 | 66 | 339 | 1.0 | 1.0 | 0.00 | 0.00 | 0.00 | 92 | 1015.4 |
| 20260509083935 | 66 | 337 | 0.0 | 2.0 | 0.00 | 0.00 | 0.00 | 92 | 1015.4 |
| 20260509083432 | 66 | 348 | 2.0 | 3.0 | 0.00 | 0.00 | 0.00 | 92 | 1015.9 |
| 20260509082929 | 66 | 4 | 2.0 | 3.0 | 0.00 | 0.00 | 0.00 | 92 | 1015.7 |
| 20260509082426 | 66 | 353 | 3.0 | 3.0 | 0.00 | 0.00 | 0.00 | 91 | 1015.8 |
| 20260509081923 | 66 | 355 | 3.0 | 3.0 | 0.00 | 0.00 | 0.00 | 91 | 1015.6 |
| 20260509081420 | 66 | 354 | 2.0 | 2.0 | 0.00 | 0.00 | 0.00 | 91 | 1015.6 |
| 20260509080918 | 66 | 358 | 1.0 | 3.0 | 0.00 | 0.00 | 0.00 | 91 | 1015.8 |
| 20260509080415 | 66 | 351 | 2.0 | 2.0 | 0.00 | 0.00 | 0.00 | 90 | 1015.6 |
| 20260509075914 | 66 | 330 | 1.0 | 2.0 | 0.00 | 0.00 | 0.00 | 90 | 1015.9 |
| 20260509075410 | 67 | 336 | 2.0 | 3.0 | 0.00 | 0.00 | 0.00 | 89 | 1016.1 |
| 20260509074908 | 67 | 0 | 2.0 | 2.0 | 0.00 | 0.00 | 0.00 | 89 | 1016.3 |
| 20260509074405 | 67 | 339 | 1.0 | 2.0 | 0.00 | 0.00 | 0.00 | 88 | 1016.0 |
| 20260509073901 | 68 | 19 | 2.0 | 3.0 | 0.00 | 0.00 | 0.00 | 88 | 1016.1 |
| 20260509073358 | 68 | 13 | 2.0 | 5.0 | 0.00 | 0.00 | 0.00 | 87 | 1015.5 |
| 20260509072854 | 69 | 339 | 2.0 | 3.0 | 0.00 | 0.00 | 0.00 | 87 | 1015.4 |
| 20260509072351 | 69 | 318 | 1.0 | 1.0 | 0.00 | 0.00 | 0.00 | 88 | 1015.3 |
| 20260509071848 | 68 | 178 | 1.0 | 2.0 | 0.00 | 0.00 | 0.00 | 89 | 1015.4 |
| 20260509071345 | 68 | 261 | 0.0 | 2.0 | 0.00 | 0.00 | 0.00 | 88 | 1015.5 |
| 20260509070842 | 68 | 337 | 2.0 | 2.0 | 0.00 | 0.00 | 0.00 | 87 | 1015.8 |
| 20260509070338 | 68 | 352 | 2.0 | 2.0 | 0.00 | 0.00 | 0.00 | 87 | 1015.8 |
| 20260509065835 | 68 | 296 | 0.0 | 2.0 | 0.00 | 0.00 | 0.00 | 88 | 1016.0 |
| 20260509065331 | 68 | 315 | 1.0 | 3.0 | 0.00 | 0.00 | 0.00 | 86 | 1015.6 |
| 20260509064827 | 68 | 356 | 1.0 | 2.0 | 0.00 | 0.00 | 0.00 | 86 | 1015.9 |
| 20260509064325 | 69 | 340 | 1.0 | 2.0 | 0.00 | 0.00 | 0.00 | 85 | 1016.6 |
| 20260509063822 | 69 | 355 | 2.0 | 3.0 | 0.00 | 0.00 | 0.00 | 85 | 1016.9 |
| 20260509063318 | 69 | 337 | 1.0 | 3.0 | 0.00 | 0.00 | 0.00 | 84 | 1016.4 |
| 20260509062816 | 69 | 201 | 3.0 | 4.0 | 0.00 | 0.00 | 0.00 | 85 | 1016.4 |
| 20260509062313 | 69 | 207 | 2.0 | 3.0 | 0.00 | 0.00 | 0.00 | 85 | 1016.0 |
| 20260509061810 | 69 | 222 | 3.0 | 4.0 | 0.00 | 0.00 | 0.00 | 83 | 1016.3 |
| 20260509061308 | 69 | 197 | 4.0 | 6.0 | 0.00 | 0.00 | 0.00 | 83 | 1016.4 |
| 20260509060804 | 69 | 201 | 1.0 | 4.0 | 0.00 | 0.00 | 0.00 | 82 | 1016.8 |
| 20260509060301 | 69 | 194 | 3.0 | 4.0 | 0.00 | 0.00 | 0.00 | 82 | 1016.9 |
| 20260509055757 | 69 | 216 | 2.0 | 4.0 | 0.00 | 0.00 | 0.00 | 82 | 1016.8 |
| 20260509055253 | 69 | 201 | 4.0 | 4.0 | 0.00 | 0.00 | 0.00 | 85 | 1016.8 |
| 20260509054749 | 69 | 215 | 4.0 | 6.0 | 0.00 | 0.00 | 0.00 | 85 | 1016.6 |
| 20260509054246 | 69 | 203 | 5.0 | 7.0 | 0.00 | 0.00 | 0.00 | 85 | 1016.4 |
| 20260509053745 | 69 | 195 | 4.0 | 5.0 | 0.00 | 0.00 | 0.00 | 85 | 1016.6 |
| 20260509053241 | 69 | 180 | 2.0 | 3.0 | 0.00 | 0.00 | 0.00 | 84 | 1016.7 |
| 20260509052739 | 69 | 192 | 4.0 | 6.0 | 0.00 | 0.00 | 0.00 | 84 | 1017.0 |
| 20260509052237 | 69 | 265 | 1.0 | 2.0 | 0.00 | 0.00 | 0.00 | 84 | 1017.5 |
| 20260509051734 | 69 | 243 | 0.0 | 3.0 | 0.00 | 0.00 | 0.00 | 83 | 1017.8 |
| 20260509051232 | 68 | 329 | 2.0 | 2.0 | 0.00 | 0.00 | 0.00 | 83 | 1017.8 |
| 20260509050729 | 68 | 329 | 1.0 | 2.0 | 0.00 | 0.00 | 0.00 | 83 | 1017.9 |
| 20260509050225 | 68 | 332 | 2.0 | 2.0 | 0.00 | 0.00 | 0.00 | 82 | 1018.0 |
| 20260509045722 | 69 | 343 | 2.0 | 2.0 | 0.00 | 0.00 | 0.00 | 81 | 1017.9 |
| 20260509045219 | 69 | 337 | 2.0 | 2.0 | 0.00 | 0.00 | 0.00 | 81 | 1018.1 |
| 20260509044717 | 69 | 326 | 1.0 | 2.0 | 0.00 | 0.00 | 0.00 | 81 | 1018.1 |
| 20260509044214 | 69 | 213 | 3.0 | 4.0 | 0.00 | 0.00 | 0.00 | 81 | 1017.8 |
| 20260509043710 | 69 | 227 | 1.0 | 2.0 | 0.00 | 0.00 | 0.00 | 80 | 1017.4 |
| 20260509043206 | 69 | 223 | 2.0 | 2.0 | 0.00 | 0.00 | 0.00 | 80 | 1017.5 |
| 20260509042703 | 69 | 181 | 1.0 | 3.0 | 0.00 | 0.00 | 0.00 | 81 | 1017.6 |
| 20260509042159 | 69 | 235 | 1.0 | 2.0 | 0.00 | 0.00 | 0.00 | 80 | 1018.1 |
| 20260509041655 | 69 | 255 | 0.0 | 2.0 | 0.00 | 0.00 | 0.00 | 80 | 1018.3 |
| 20260509041153 | 69 | 326 | 0.0 | 1.0 | 0.00 | 0.00 | 0.00 | 80 | 1018.3 |
| 20260509040651 | 69 | 213 | 3.0 | 4.0 | 0.00 | 0.00 | 0.00 | 80 | 1018.6 |
| 20260509040148 | 68 | 208 | 3.0 | 5.0 | 0.00 | 0.00 | 0.00 | 81 | 1018.6 |
| 20260509035645 | 68 | 237 | 2.0 | 2.0 | 0.00 | 0.00 | 0.00 | 81 | 1018.7 |
| 20260509035141 | 68 | 190 | 1.0 | 3.0 | 0.00 | 0.00 | 0.00 | 80 | 1018.6 |
| 20260509034639 | 68 | 230 | 2.0 | 3.0 | 0.00 | 0.00 | 0.00 | 81 | 1018.6 |
| 20260509034136 | 68 | 199 | 2.0 | 2.0 | 0.00 | 0.00 | 0.00 | 81 | 1018.7 |
| 20260509033633 | 68 | 322 | 1.0 | 2.0 | 0.00 | 0.00 | 0.00 | 80 | 1018.5 |
| 20260509033130 | 68 | 292 | 0.0 | 1.0 | 0.00 | 0.00 | 0.00 | 80 | 1018.6 |
| 20260509032627 | 68 | 234 | 2.0 | 3.0 | 0.00 | 0.00 | 0.00 | 81 | 1018.7 |
| 20260509032124 | 68 | 303 | 2.0 | 2.0 | 0.00 | 0.00 | 0.00 | 81 | 1018.7 |
| 20260509031622 | 68 | 333 | 1.0 | 2.0 | 0.00 | 0.00 | 0.00 | 81 | 1018.8 |
| 20260509031119 | 68 | 318 | 0.0 | 2.0 | 0.00 | 0.00 | 0.00 | 81 | 1018.6 |
| 20260509030617 | 68 | 237 | 1.0 | 2.0 | 0.00 | 0.00 | 0.00 | 80 | 1018.9 |
| 20260509030114 | 68 | 243 | 1.0 | 3.0 | 0.00 | 0.00 | 0.00 | 82 | 1019.0 |
| 20260509025610 | 67 | 221 | 2.0 | 2.0 | 0.00 | 0.00 | 0.00 | 82 | 1018.8 |
| 20260509025106 | 67 | 1 | 0.0 | 1.0 | 0.00 | 0.00 | 0.00 | 83 | 1018.6 |
| 20260509024602 | 67 | 348 | 1.0 | 2.0 | 0.00 | 0.00 | 0.00 | 82 | 1018.6 |
| 20260509024058 | 67 | 323 | 2.0 | 2.0 | 0.00 | 0.00 | 0.00 | 83 | 1018.4 |
| 20260509023556 | 67 | 328 | 1.0 | 1.0 | 0.00 | 0.00 | 0.00 | 82 | 1018.5 |
| 20260509023053 | 67 | 315 | 1.0 | 2.0 | 0.00 | 0.00 | 0.00 | 82 | 1018.5 |
| 20260509022549 | 67 | 344 | 1.0 | 2.0 | 0.00 | 0.00 | 0.00 | 82 | 1018.8 |
| 20260509022047 | 67 | 321 | 0.0 | 1.0 | 0.00 | 0.00 | 0.00 | 81 | 1018.5 |
| 20260509021543 | 67 | 211 | 1.0 | 2.0 | 0.00 | 0.00 | 0.00 | 81 | 1018.5 |
| 20260509021041 | 67 | 251 | 2.0 | 2.0 | 0.00 | 0.00 | 0.00 | 83 | 1018.5 |
| 20260509020539 | 67 | 316 | 0.0 | 1.0 | 0.00 | 0.00 | 0.00 | 82 | 1018.5 |
| 20260509020035 | 66 | 341 | 0.0 | 1.0 | 0.00 | 0.00 | 0.00 | 82 | 1018.5 |
| 20260509015535 | 66 | 337 | 1.0 | 2.0 | 0.00 | 0.00 | 0.00 | 82 | 1018.6 |
| 20260509015031 | 66 | 322 | 1.0 | 2.0 | 0.00 | 0.00 | 0.00 | 82 | 1018.4 |
| 20260509014528 | 66 | 315 | 0.0 | 1.0 | 0.00 | 0.00 | 0.00 | 82 | 1018.4 |
| 20260509014024 | 66 | 316 | 1.0 | 1.0 | 0.00 | 0.00 | 0.00 | 82 | 1018.4 |
| 20260509013521 | 66 | 321 | 0.0 | 2.0 | 0.00 | 0.00 | 0.00 | 82 | 1018.1 |
| 20260509013016 | 66 | 320 | 0.0 | 2.0 | 0.00 | 0.00 | 0.00 | 81 | 1018.4 |
| 20260509012514 | 67 | 328 | 0.0 | 1.0 | 0.00 | 0.00 | 0.00 | 81 | 1018.3 |
| 20260509012010 | 66 | 319 | 0.0 | 1.0 | 0.00 | 0.00 | 0.00 | 81 | 1018.3 |
| 20260509011508 | 66 | 224 | 0.0 | 2.0 | 0.00 | 0.00 | 0.00 | 81 | 1018.2 |
| 20260509011005 | 66 | 207 | 2.0 | 2.0 | 0.00 | 0.00 | 0.00 | 81 | 1018.3 |
| 20260509010503 | 66 | 289 | 0.0 | 1.0 | 0.00 | 0.00 | 0.00 | 82 | 1018.2 |
| 20260509005959 | 66 | 257 | 0.0 | 1.0 | 0.00 | 0.00 | 0.00 | 81 | 1018.3 |
| 20260509005458 | 66 | 228 | 1.0 | 3.0 | 0.00 | 0.00 | 0.00 | 81 | 1018.2 |
| 20260509004957 | 66 | 228 | 0.0 | 2.0 | 0.00 | 0.00 | 0.00 | 81 | 1018.1 |
| 20260509004455 | 66 | 324 | 1.0 | 1.0 | 0.00 | 0.00 | 0.00 | 79 | 1017.8 |
| 20260509003952 | 66 | 247 | 0.0 | 1.0 | 0.00 | 0.00 | 0.00 | 82 | 1018.0 |
| 20260509003450 | 66 | 45 | 0.0 | 2.0 | 0.00 | 0.00 | 0.00 | 81 | 1017.8 |
| 20260509002947 | 66 | 323 | 2.0 | 2.0 | 0.00 | 0.00 | 0.00 | 81 | 1017.8 |
| 20260509002445 | 66 | 328 | 0.0 | 2.0 | 0.00 | 0.00 | 0.00 | 80 | 1017.8 |
| 20260509001942 | 66 | 338 | 1.0 | 2.0 | 0.00 | 0.00 | 0.00 | 81 | 1017.9 |
| 20260509001438 | 66 | 211 | 0.0 | 1.0 | 0.00 | 0.00 | 0.00 | 81 | 1017.9 |
| 20260509000935 | 66 | 221 | 0.0 | 2.0 | 0.00 | 0.00 | 0.00 | 80 | 1018.0 |
| 20260509000433 | 66 | 309 | 0.0 | 2.0 | 0.00 | 0.00 | 0.00 | 80 | 1017.8 |
| 20260508235928 | 66 | 350 | 2.0 | 2.0 | 0.00 | 0.00 | 0.00 | 79 | 1017.8 |
| 20260508235427 | 66 | 338 | 1.0 | 1.0 | 0.00 | 0.00 | 0.00 | 79 | 1017.8 |
| 20260508234923 | 66 | 341 | 2.0 | 2.0 | 0.00 | 0.00 | 0.00 | 79 | 1017.7 |
| 20260508234420 | 66 | 0 | 1.0 | 2.0 | 0.00 | 0.00 | 0.00 | 78 | 1017.8 |
| 20260508233918 | 66 | 314 | 3.0 | 4.0 | 0.00 | 0.00 | 0.00 | 78 | 1017.5 |
| 20260508233417 | 66 | 359 | 1.0 | 2.0 | 0.00 | 0.00 | 0.00 | 78 | 1017.8 |
| 20260508232913 | 66 | 328 | 0.0 | 3.0 | 0.00 | 0.00 | 0.00 | 79 | 1017.8 |
| 20260508232410 | 66 | 27 | 0.0 | 1.0 | 0.00 | 0.00 | 0.00 | 79 | 1017.7 |
| 20260508231908 | 66 | 312 | 0.0 | 0.0 | 0.00 | 0.00 | 0.00 | 79 | 1017.6 |
| 20260508231404 | 66 | 239 | 0.0 | 3.0 | 0.00 | 0.00 | 0.00 | 79 | 1017.8 |
| 20260508230901 | 67 | 292 | 0.0 | 3.0 | 0.00 | 0.00 | 0.00 | 78 | 1017.8 |
| 20260508230358 | 67 | 341 | 1.0 | 2.0 | 0.00 | 0.00 | 0.00 | 77 | 1017.7 |
| 20260508225855 | 67 | 305 | 0.0 | 2.0 | 0.00 | 0.00 | 0.00 | 77 | 1017.7 |
| 20260508225351 | 67 | 347 | 1.0 | 2.0 | 0.00 | 0.00 | 0.00 | 77 | 1017.8 |
| 20260508224850 | 67 | 332 | 2.0 | 3.0 | 0.00 | 0.00 | 0.00 | 77 | 1017.5 |
| 20260508224347 | 67 | 317 | 2.0 | 3.0 | 0.00 | 0.00 | 0.00 | 77 | 1017.7 |
| 20260508223844 | 67 | 302 | 1.0 | 1.0 | 0.00 | 0.00 | 0.00 | 77 | 1018.0 |
| 20260508223341 | 67 | 326 | 0.0 | 2.0 | 0.00 | 0.00 | 0.00 | 78 | 1017.5 |
| 20260508222839 | 67 | 334 | 2.0 | 2.0 | 0.00 | 0.00 | 0.00 | 77 | 1017.7 |
| 20260508222336 | 67 | 14 | 1.0 | 2.0 | 0.00 | 0.00 | 0.00 | 76 | 1017.9 |
| 20260508221832 | 67 | 312 | 1.0 | 2.0 | 0.00 | 0.00 | 0.00 | 76 | 1017.8 |
| 20260508221328 | 67 | 317 | 0.0 | 2.0 | 0.00 | 0.00 | 0.00 | 76 | 1017.9 |
| 20260508220825 | 68 | 309 | 2.0 | 2.0 | 0.00 | 0.00 | 0.00 | 75 | 1017.7 |
| 20260508220321 | 68 | 260 | 0.0 | 3.0 | 0.00 | 0.00 | 0.00 | 76 | 1017.8 |
| 20260508215818 | 68 | 311 | 0.0 | 2.0 | 0.00 | 0.00 | 0.00 | 76 | 1017.8 |
| 20260508215314 | 68 | 351 | 0.0 | 2.0 | 0.00 | 0.00 | 0.00 | 74 | 1017.8 |
| 20260508214812 | 68 | 331 | 0.0 | 2.0 | 0.00 | 0.00 | 0.00 | 74 | 1017.8 |
| 20260508214309 | 68 | 232 | 0.0 | 2.0 | 0.00 | 0.00 | 0.00 | 75 | 1017.8 |
| 20260508213805 | 68 | 108 | 0.0 | 3.0 | 0.00 | 0.00 | 0.00 | 74 | 1017.9 |
| 20260508213302 | 69 | 330 | 0.0 | 2.0 | 0.00 | 0.00 | 0.00 | 73 | 1017.9 |
| 20260508212758 | 69 | 342 | 0.0 | 2.0 | 0.00 | 0.00 | 0.00 | 74 | 1018.1 |
| 20260508212254 | 68 | 277 | 0.0 | 2.0 | 0.00 | 0.00 | 0.00 | 75 | 1018.1 |
| 20260508211750 | 68 | 323 | 0.0 | 2.0 | 0.00 | 0.00 | 0.00 | 74 | 1018.0 |
| 20260508211246 | 68 | 315 | 0.0 | 2.0 | 0.00 | 0.00 | 0.00 | 73 | 1017.8 |
| 20260508210744 | 68 | 322 | 0.0 | 1.0 | 0.00 | 0.00 | 0.00 | 76 | 1017.8 |
| 20260508210241 | 68 | 148 | 0.0 | 4.0 | 0.00 | 0.00 | 0.00 | 75 | 1017.7 |
| 20260508205737 | 68 | 189 | 1.0 | 2.0 | 0.00 | 0.00 | 0.00 | 73 | 1017.7 |
| 20260508205234 | 68 | 322 | 2.0 | 3.0 | 0.00 | 0.00 | 0.00 | 73 | 1018.1 |
| 20260508204730 | 68 | 139 | 1.0 | 2.0 | 0.00 | 0.00 | 0.00 | 74 | 1018.1 |
| 20260508204227 | 68 | 189 | 0.0 | 2.0 | 0.00 | 0.00 | 0.00 | 73 | 1017.7 |
| 20260508203723 | 68 | 202 | 1.0 | 2.0 | 0.00 | 0.00 | 0.00 | 73 | 1017.6 |
| 20260508203219 | 69 | 186 | 1.0 | 3.0 | 0.00 | 0.00 | 0.00 | 71 | 1017.8 |
| 20260508202716 | 69 | 335 | 0.0 | 2.0 | 0.00 | 0.00 | 0.00 | 72 | 1017.9 |
| 20260508202213 | 69 | 27 | 0.0 | 1.0 | 0.00 | 0.00 | 0.00 | 74 | 1018.0 |
| 20260508201710 | 69 | 206 | 2.0 | 2.0 | 0.00 | 0.00 | 0.00 | 71 | 1018.1 |
| 20260508201206 | 69 | 161 | 2.0 | 4.0 | 0.00 | 0.00 | 0.00 | 71 | 1018.4 |
| 20260508200703 | 69 | 27 | 0.0 | 2.0 | 0.00 | 0.00 | 0.00 | 70 | 1018.5 |
| 20260508200159 | 70 | 154 | 2.0 | 3.0 | 0.00 | 0.00 | 0.00 | 68 | 1018.4 |
| 20260508195656 | 70 | 217 | 2.0 | 2.0 | 0.00 | 0.00 | 0.00 | 68 | 1018.4 |
| 20260508195153 | 70 | 326 | 0.0 | 2.0 | 0.00 | 0.00 | 0.00 | 69 | 1018.5 |
| 20260508194649 | 71 | 97 | 0.0 | 2.0 | 0.00 | 0.00 | 0.00 | 69 | 1018.6 |
| 20260508194146 | 71 | 138 | 0.0 | 2.0 | 0.00 | 0.00 | 0.00 | 70 | 1018.4 |
| 20260508193643 | 70 | 249 | 0.0 | 2.0 | 0.00 | 0.00 | 0.00 | 71 | 1018.5 |
| 20260508193140 | 70 | 35 | 2.0 | 2.0 | 0.00 | 0.00 | 0.00 | 68 | 1018.5 |
| 20260508192636 | 70 | 300 | 1.0 | 2.0 | 0.00 | 0.00 | 0.00 | 69 | 1018.5 |
| 20260508192134 | 71 | 335 | 0.0 | 2.0 | 0.00 | 0.00 | 0.00 | 68 | 1018.4 |
| 20260508191630 | 71 | 302 | 0.0 | 3.0 | 0.00 | 0.00 | 0.00 | 67 | 1018.6 |
| 20260508191127 | 71 | 35 | 0.0 | 2.0 | 0.00 | 0.00 | 0.00 | 66 | 1018.5 |
| 20260508190625 | 70 | 60 | 1.0 | 4.0 | 0.00 | 0.00 | 0.00 | 66 | 1018.8 |
| 20260508190121 | 70 | 275 | 0.0 | 2.0 | 0.00 | 0.00 | 0.00 | 67 | 1019.0 |
| 20260508185618 | 70 | 7 | 0.0 | 2.0 | 0.00 | 0.00 | 0.00 | 64 | 1018.8 |